GFSNGP_850_spd_132.txt.gz
Wind_Speed
10 11 4 2 7 12 12 13 7 4 4 8 11 12 14 18 23 27 31 33 34 35 35 37 37 35 33 29 29 25 20 22 20 16 15 14 13 13 14 17 20 23 26 29
7 6 11 7 8 12 9 11 11 4 6 3 7 12 19 22 23 25 27 27 27 28 28 30 31 29 28 30 24 24 24 21 20 17 12 15 14 15 18 18 19 22 23 26
3 2 10 4 5 6 10 11 6 9 8 12 6 13 18 21 22 23 25 26 25 24 25 26 27 28 30 28 24 23 25 20 23 24 21 21 21 20 20 21 21 20 19 21
3 4 3 5 2 5 10 9 9 6 9 11 1 6 16 20 22 24 24 25 25 23 23 23 24 25 21 17 19 21 19 23 25 25 25 24 23 22 21 21 22 24 23 22
3 1 6 8 3 3 3 5 9 9 10 15 4 10 10 18 18 18 19 20 21 22 25 26 27 24 23 25 25 26 27 26 27 27 25 26 25 24 25 25 25 24 23 23
3 3 3 6 8 3 4 4 9 10 11 12 13 5 8 16 16 17 17 18 19 19 19 23 26 25 25 26 26 28 28 28 28 28 28 28 28 28 26 25 25 24 22 20
2 3 3 4 8 1 5 4 7 9 10 10 7 6 9 13 15 17 17 18 17 17 19 22 24 24 24 24 27 26 26 26 26 26 27 28 27 28 30 26 23 24 24 22
2 4 3 10 2 3 3 2 5 6 8 7 5 7 10 13 15 16 18 19 19 18 19 20 22 23 24 24 23 23 23 24 25 27 27 27 27 28 30 32 31 31 31 30
4 3 4 8 8 5 2 2 4 5 6 6 6 7 9 11 13 15 17 17 18 19 19 20 22 23 22 22 21 21 21 23 23 25 26 28 30 32 30 33 35 36 35 35
5 5 6 6 6 4 4 4 4 5 5 6 7 8 9 10 12 14 16 18 19 20 21 23 24 24 24 23 22 22 23 23 23 25 26 27 29 32 32 35 35 36 37 34
3 8 8 5 5 4 4 5 5 5 5 6 6 8 9 9 11 12 13 15 17 18 19 20 21 22 22 22 22 21 20 21 23 22 24 24 25 28 30 30 31 31 33 31
1 11 4 10 6 3 4 3 3 2 3 6 7 7 8 9 10 11 11 12 13 15 16 18 20 21 22 21 21 21 19 21 21 20 21 22 23 20 21 25 27 28 27 28
6 7 9 11 5 3 8 5 4 4 4 4 5 5 6 7 9 10 11 12 14 15 16 18 19 20 20 21 20 20 19 20 20 21 22 21 21 21 22 19 21 27 27 27
11 13 9 8 6 9 7 6 5 5 5 4 4 5 5 6 7 9 10 11 12 14 16 17 18 20 20 19 20 20 19 19 19 20 20 20 19 19 19 21 21 22 25 25
9 4 7 12 11 9 7 6 5 4 4 4 5 5 6 7 8 10 10 11 11 12 14 16 18 20 21 20 19 20 20 20 19 18 17 17 17 16 17 17 19 20 17 19
12 11 11 11 10 8 7 6 5 5 5 6 6 6 6 7 8 9 9 10 12 14 14 15 16 18 18 18 17 17 17 19 18 18 17 16 15 15 15 16 16 18 22 23
15 11 11 11 10 8 7 6 7 7 7 7 6 6 5 5 6 8 9 10 12 13 13 14 15 16 17 17 16 15 15 17 18 17 17 16 15 15 14 14 14 15 18 20
8 7 9 10 11 10 9 9 9 8 8 8 7 5 5 6 7 8 9 9 8 9 11 13 15 16 16 16 15 14 15 15 16 16 16 17 16 14 14 14 14 14 15 16
9 10 11 12 12 11 11 11 11 11 10 8 7 6 7 7 8 8 9 7 7 10 12 13 14 14 15 16 14 13 14 14 15 15 15 15 15 15 15 14 14 14 14 15
12 13 14 14 13 12 13 13 12 11 10 8 6 5 5 6 7 7 8 9 10 11 12 12 12 12 13 14 14 12 13 13 13 13 14 14 14 14 14 15 14 14 14 14
15 15 14 14 16 15 14 13 12 10 9 7 5 4 4 5 5 5 6 5 8 8 10 10 11 11 12 12 12 12 11 11 12 12 12 13 13 13 13 13 13 13 13 12
17 17 18 18 17 17 16 14 12 10 8 7 5 4 4 3 3 3 5 5 7 8 8 10 10 11 11 10 10 11 11 11 11 10 11 11 11 11 12 12 11 11 11 11
19 19 20 20 19 17 16 14 12 10 8 7 5 4 3 2 2 1 1 5 5 6 7 9 10 10 10 10 10 10 10 10 10 10 10 10 10 10 10 11 10 10 10 9
22 22 21 21 19 18 16 15 13 11 9 7 5 4 3 2 1 1 2 4 5 5 6 7 8 9 9 10 10 10 10 10 10 10 9 9 8 9 9 10 10 10 9 8
23 23 23 21 20 18 17 16 14 12 10 7 6 4 3 3 3 4 2 3 4 4 5 6 7 7 8 8 9 10 9 10 10 10 9 9 9 9 8 9 9 9 8 7
24 24 22 21 19 18 17 17 13 12 10 9 8 7 6 6 5 4 4 3 4 5 5 6 7 7 8 8 8 9 9 9 9 10 10 9 9 9 9 9 9 8 8 8
24 24 23 23 21 20 18 16 14 13 13 11 10 10 9 8 7 6 6 6 5 6 6 6 7 8 9 9 9 9 9 9 10 10 9 9 9 9 10 10 9 9 9 9

GFSNGP_850_spd_135.txt.gz
Wind_Speed
5 4 5 0 2 5 4 10 5 3 4 9 6 7 12 16 20 24 27 31 35 36 37 38 40 40 39 39 36 36 33 32 29 22 21 18 17 11 11 10 7 8 10 12
4 3 12 4 2 2 2 3 5 2 7 9 5 9 15 18 21 23 25 28 29 31 33 35 37 37 34 35 35 30 31 33 28 28 26 23 18 17 18 14 13 11 13 14
3 7 10 5 3 3 5 6 6 5 6 11 6 8 13 17 20 23 24 25 26 27 29 33 34 33 32 31 29 31 29 27 29 31 30 27 26 23 21 22 20 17 16 16
1 11 5 4 5 4 8 4 5 4 4 7 3 2 10 17 19 21 22 24 25 26 26 28 29 30 29 30 30 32 30 29 31 29 29 30 31 29 26 24 25 24 22 21
3 3 6 6 6 6 7 5 2 3 5 9 5 9 8 17 17 17 18 18 19 21 22 24 28 28 30 30 31 31 30 29 28 25 27 30 29 29 25 24 23 21 21 21
5 8 4 7 3 3 4 5 2 3 6 9 12 3 7 15 15 16 16 16 18 18 20 23 26 24 25 28 30 32 32 30 29 30 29 29 27 25 23 25 25 26 23 19
6 5 6 5 5 9 4 4 3 5 5 7 6 5 7 10 12 13 14 15 16 16 18 20 23 24 24 24 26 24 24 26 27 26 25 24 24 24 28 25 23 26 27 24
5 5 5 4 7 4 4 5 3 4 5 4 4 5 7 9 11 12 15 16 17 17 17 19 22 24 24 26 26 24 23 23 23 25 26 26 27 26 28 28 29 31 32 31
4 3 6 8 10 6 4 4 3 3 4 4 4 6 7 8 9 10 13 16 16 17 18 19 21 23 24 24 26 24 23 23 22 23 23 24 25 28 30 32 33 33 35 37
5 4 7 7 8 7 5 5 3 3 4 5 5 6 7 8 9 10 14 15 17 17 19 21 23 22 22 23 22 21 22 21 21 22 23 24 24 27 29 34 35 36 39 41
4 6 6 6 6 6 5 5 3 4 5 5 5 6 7 7 8 9 11 12 14 16 17 19 20 21 21 23 23 21 19 20 22 20 21 21 21 24 25 26 31 32 33 32
2 13 2 13 8 6 5 3 2 1 2 5 6 6 6 7 8 9 11 12 13 14 14 16 17 19 21 22 22 22 20 21 22 21 21 21 21 19 20 23 23 26 26 29
6 11 8 13 7 4 7 4 3 2 3 3 5 5 6 6 8 9 9 11 12 14 15 16 18 19 20 20 20 21 21 21 19 21 21 22 22 21 19 19 21 20 23 24
15 16 11 10 6 8 7 5 4 3 3 3 4 5 5 6 7 9 10 11 11 12 14 16 17 20 22 21 21 22 21 20 20 20 20 20 21 21 21 21 23 24 21 21
12 3 11 13 11 10 7 5 4 2 1 3 4 4 5 6 8 9 10 11 10 12 15 17 19 21 22 21 20 21 21 22 21 19 20 20 19 19 20 20 21 22 24 22
11 11 13 13 12 9 8 6 5 4 4 3 3 4 5 6 7 8 9 11 13 15 16 18 19 20 21 20 20 19 18 22 20 19 19 19 18 18 19 20 21 21 24 29
16 14 13 12 11 10 9 7 7 7 6 5 4 3 3 4 6 7 8 10 12 15 15 16 17 18 20 19 19 18 18 19 20 19 19 19 19 19 18 19 20 20 20 26
10 9 11 11 12 12 10 9 9 9 8 7 5 3 3 3 2 5 7 8 9 12 13 14 15 17 18 18 19 17 17 17 18 18 18 19 18 18 18 18 18 18 19 20
10 11 11 13 13 12 12 11 11 11 9 7 6 4 3 2 2 3 5 6 7 8 10 12 14 15 15 15 16 15 15 16 16 16 16 17 17 17 18 17 16 17 17 18
12 12 14 16 15 15 17 16 13 12 10 9 7 5 4 2 1 1 3 6 7 8 9 10 11 11 13 13 15 12 13 14 14 14 15 15 16 16 15 16 16 16 16 16
18 18 18 18 18 16 14 14 14 13 11 10 8 6 5 3 1 0 5 2 8 7 7 9 10 10 10 11 11 11 11 12 12 12 13 13 13 14 14 14 14 14 14 14
17 18 18 18 18 18 18 16 15 13 12 11 9 7 6 5 3 2 2 3 6 6 5 7 8 9 9 9 8 9 10 10 10 10 11 11 11 11 12 12 13 13 13 13
18 19 19 20 20 19 19 18 16 14 13 11 10 9 7 6 5 5 5 8 5 5 4 7 7 8 9 8 7 8 8 9 9 9 10 10 10 10 11 11 11 12 11 11
19 20 21 21 21 20 20 18 17 15 14 12 11 10 9 6 6 7 8 9 7 6 6 6 7 8 8 7 7 7 7 8 8 8 9 10 9 9 9 10 10 9 10 10
20 22 23 24 22 20 19 18 17 16 15 14 12 12 11 11 8 9 8 8 7 6 6 8 7 8 7 7 7 8 7 8 11 9 8 9 9 9 9 9 9 10 9 9
22 22 22 23 19 17 17 18 16 15 14 12 11 10 10 10 10 12 10 10 9 8 6 8 8 9 7 7 10 9 9 8 8 8 10 9 9 9 9 10 9 9 9 10
20 19 18 20 19 17 17 17 16 14 14 13 12 12 12 11 10 10 10 9 10 8 8 8 9 9 10 10 9 9 10 9 13 13 11 9 9 9 10 11 10 11 11 11

GFSNGP_850_spd_138.txt.gz
Wind_Speed
6 4 9 2 5 5 2 2 3 2 4 6 2 4 9 15 18 19 23 26 28 30 33 36 37 37 38 38 36 33 39 40 42 36 36 30 24 24 23 21 14 11 9 5
6 10 10 5 7 4 5 3 2 1 6 7 6 5 11 16 19 20 22 23 25 26 29 32 35 35 36 37 38 37 36 37 36 36 37 30 31 26 28 22 16 14 10 9
9 13 7 3 2 1 8 5 4 1 4 7 6 6 10 15 17 19 21 23 24 25 26 28 30 31 32 32 34 37 37 36 36 35 32 31 28 32 30 21 13 16 17 15
4 10 3 2 4 4 9 4 2 2 3 7 7 2 7 13 16 18 20 21 22 25 26 28 29 28 30 31 33 36 36 36 32 31 30 30 32 29 28 25 26 21 21 18
3 7 5 6 9 6 6 6 5 2 3 8 10 9 9 13 14 16 18 19 20 21 23 27 30 28 28 31 34 35 36 35 33 31 32 32 32 29 29 25 26 27 23 22
5 8 3 7 7 4 6 4 4 0 3 7 12 4 6 14 14 14 16 17 20 19 22 27 30 28 29 31 32 34 33 32 32 32 33 34 31 33 28 25 27 28 26 27
7 4 5 6 9 10 4 4 5 4 4 5 5 5 8 10 11 12 14 16 18 18 22 26 28 29 29 31 32 30 28 28 29 30 31 30 30 31 29 30 32 32 32 32
7 6 5 5 10 4 8 8 7 6 4 4 3 3 5 8 9 12 15 16 18 18 20 24 26 28 29 30 28 27 27 28 27 28 28 29 31 31 34 35 34 34 34 35
4 4 11 10 16 13 9 11 7 6 4 4 3 5 5 7 8 10 16 17 18 18 20 23 24 25 26 27 28 26 26 27 26 28 30 30 32 35 35 36 36 37 37 37
3 9 12 13 12 12 11 10 8 6 5 4 4 4 5 6 8 10 15 16 19 18 20 22 22 23 23 25 26 26 26 27 28 29 28 29 30 36 36 37 37 38 40 40
6 10 11 8 10 10 11 9 9 8 7 6 4 5 5 6 7 8 11 12 16 17 18 20 20 22 23 25 27 26 25 25 27 26 26 26 25 27 31 33 34 31 31 34
2 15 4 16 12 11 10 8 7 6 5 5 6 5 5 6 6 7 9 10 12 15 15 17 19 21 21 22 25 25 25 25 26 26 26 24 24 24 23 25 28 28 22 29
7 13 13 17 11 11 10 8 7 7 6 5 5 5 6 6 6 7 8 9 11 15 15 16 18 19 20 21 23 25 26 24 23 23 23 24 24 22 22 20 21 25 27 20
16 19 15 15 9 11 10 9 9 8 7 7 6 6 6 6 6 7 7 8 8 9 12 14 16 20 20 19 22 21 24 23 23 23 22 22 21 22 21 22 24 27 27 26
14 2 15 14 14 12 10 9 8 6 6 6 6 6 6 6 6 6 5 7 5 8 12 14 17 19 19 18 19 20 22 24 22 23 23 22 21 21 22 22 23 25 28 26
11 13 15 15 13 11 10 8 7 6 7 6 6 6 6 6 6 5 5 7 9 12 13 14 15 17 17 16 18 18 18 21 21 21 23 22 24 22 22 23 22 24 28 31
18 17 15 13 12 11 9 8 7 8 8 8 8 8 6 5 3 3 5 7 9 11 12 13 14 16 16 16 18 17 17 18 20 18 22 22 21 23 21 20 21 22 24 26
13 13 12 12 13 12 11 10 10 10 10 11 7 6 5 6 1 2 4 6 7 10 10 11 12 14 14 13 16 15 16 16 17 19 17 20 19 18 21 20 21 20 21 23
11 12 12 12 13 13 12 12 12 14 12 9 7 6 5 3 1 1 3 4 6 7 9 10 11 12 13 13 14 13 13 14 13 16 16 15 17 19 18 18 18 19 20 21
12 14 14 17 15 16 18 17 16 12 11 9 8 6 4 3 2 2 3 3 7 8 8 9 10 10 12 11 12 11 12 12 12 12 14 14 15 16 17 16 17 16 17 18
19 19 19 19 19 18 16 14 13 13 12 10 9 7 6 5 3 3 2 6 10 8 9 9 10 10 10 10 10 11 12 11 11 12 13 14 14 13 15 16 15 17 16 16
20 19 18 17 18 17 17 16 15 14 13 11 10 9 8 7 6 5 4 6 11 8 8 9 9 10 10 10 10 10 10 11 11 12 13 12 13 14 14 16 14 16 16 14
19 17 17 18 18 18 18 18 17 15 14 13 12 11 10 8 6 4 7 12 10 9 8 9 9 10 11 11 10 10 10 11 10 10 12 13 12 13 12 15 15 12 14 15
17 16 17 18 19 19 20 20 18 17 16 14 14 14 13 11 11 11 14 15 16 13 11 11 10 10 10 10 11 10 9 11 14 11 10 11 12 12 13 13 14 15 12 13
16 16 18 20 21 20 20 19 18 19 18 17 16 16 15 14 12 6 14 16 13 11 11 12 11 11 11 10 12 12 12 9 15 15 13 12 12 12 13 15 13 14 13 15
16 18 19 20 20 19 19 20 20 19 18 17 15 15 15 15 16 17 19 17 18 16 12 11 14 15 13 10 13 13 12 13 11 17 17 13 12 13 13 17 14 12 13 14
16 17 17 19 22 19 18 20 19 18 17 15 12 14 15 16 15 16 15 12 16 16 13 12 13 14 15 16 15 13 11 12 13 16 19 15 12 13 15 18 17 15 14 14

GFSNGP_850_spd_141.txt.gz
Wind_Speed
3 7 4 3 6 7 3 3 2 4 5 1 4 4 4 12 13 16 19 24 24 28 33 33 33 34 33 34 34 35 35 35 36 34 32 33 34 28 30 29 33 25 17 8
6 4 9 4 4 10 6 4 6 5 3 1 1 4 13 13 14 16 19 22 22 23 30 32 31 32 32 32 34 35 36 35 35 33 32 31 33 33 28 25 28 27 21 15
3 11 6 2 4 4 7 5 2 3 3 1 1 10 13 12 13 15 17 19 21 21 27 29 28 28 29 30 31 33 34 33 35 33 34 31 31 33 31 29 23 23 20 17
4 6 3 3 1 6 9 4 3 5 1 2 2 18 15 13 12 14 15 16 17 19 24 24 27 27 25 28 30 32 33 34 33 36 35 35 34 39 39 29 24 24 22 23
3 1 3 6 6 6 5 5 6 5 2 6 10 14 16 13 9 11 14 14 14 16 20 22 25 25 25 27 29 31 32 32 34 34 38 40 40 37 34 29 27 25 25 26
1 3 5 1 10 14 9 2 7 6 5 3 8 3 1 8 8 12 16 14 14 15 18 21 24 24 25 28 28 31 30 31 31 33 36 36 36 34 33 31 29 29 32 32
2 1 2 6 12 15 4 5 14 13 9 9 4 4 3 2 8 14 17 15 15 16 18 21 22 23 25 27 29 26 26 25 28 29 30 36 35 34 32 32 32 34 33 34
3 2 4 14 11 5 8 16 15 11 7 9 7 6 5 4 6 12 16 16 17 16 17 19 22 23 25 27 25 25 25 27 27 28 29 31 33 33 34 33 33 34 34 35
2 3 9 16 16 24 20 19 15 13 9 9 7 7 6 5 7 11 14 16 18 15 16 19 21 21 25 26 25 25 24 27 26 26 26 27 33 35 35 36 35 35 36 37
5 7 14 17 17 19 15 15 13 11 10 10 9 7 7 7 9 10 12 15 17 15 17 19 21 20 21 23 25 25 25 27 27 27 26 27 31 33 35 37 36 32 35 35
6 15 20 17 16 16 17 16 14 13 12 9 10 8 7 8 7 7 8 11 15 16 15 18 20 20 20 22 25 26 24 25 26 26 26 25 25 27 30 31 33 30 29 30
4 21 10 20 16 14 15 14 12 11 10 10 8 8 6 5 4 4 5 9 12 14 14 17 18 17 19 21 23 26 24 25 27 24 24 24 24 19 18 21 25 27 23 25
8 23 19 22 19 16 14 14 13 13 10 10 10 8 4 4 4 2 3 6 10 13 12 15 16 15 17 19 21 24 23 24 25 24 24 23 23 24 25 23 25 29 26 24
26 27 24 23 23 18 16 17 15 13 12 9 10 10 7 5 3 3 3 4 7 9 12 14 15 16 16 17 19 20 24 22 24 23 22 23 20 21 23 26 29 30 29 28
18 8 22 23 20 17 16 15 11 12 13 14 12 9 8 5 3 3 3 2 5 8 11 12 13 14 15 16 18 17 20 22 20 22 22 23 24 22 23 25 27 29 30 29
13 18 21 22 22 20 19 16 16 13 10 10 9 7 7 6 4 3 4 4 5 8 10 11 11 12 14 14 15 15 15 18 19 19 22 22 23 25 25 25 26 27 30 31
24 21 22 23 23 21 20 17 15 12 13 11 12 10 7 6 4 3 3 4 5 7 9 9 9 10 10 11 13 13 12 14 17 17 19 20 21 21 21 22 23 24 24 26
14 18 18 20 21 20 18 16 15 16 17 14 13 12 9 7 3 2 1 2 4 5 6 7 8 8 7 7 10 10 10 10 14 15 14 16 17 19 18 18 19 20 21 22
13 15 15 15 18 20 20 19 19 16 15 12 12 11 10 8 5 3 1 0 3 4 5 6 7 7 6 6 9 10 10 10 11 13 13 12 13 15 17 17 17 17 18 20
17 18 19 19 19 20 19 18 16 15 13 13 12 11 9 8 6 5 4 4 2 3 5 5 5 6 6 6 9 10 10 10 10 11 11 11 12 13 15 16 16 16 17 18
17 19 20 21 20 18 15 14 14 14 14 13 12 10 8 7 7 7 7 6 5 5 8 7 5 6 5 7 9 10 10 10 10 11 11 12 12 12 14 14 15 15 16 16
20 20 19 19 18 17 17 16 15 15 15 14 13 12 10 9 9 8 7 8 9 8 11 9 8 7 8 10 10 10 11 11 11 11 12 12 12 13 14 15 15 15 15 15
21 19 19 18 17 18 18 18 17 16 16 14 14 12 10 11 11 10 11 10 12 10 12 11 11 11 11 11 11 11 11 12 11 11 13 13 13 13 14 15 16 16 15 15
20 20 19 19 19 20 21 19 18 18 16 16 16 14 13 12 13 13 14 14 15 15 17 15 15 14 13 12 13 12 11 14 14 14 13 11 13 13 14 15 16 17 15 16
18 18 19 20 20 20 19 18 19 20 19 19 18 16 15 14 14 15 16 16 14 14 15 15 16 15 12 12 14 14 13 14 13 14 14 16 17 15 16 16 16 18 17 17
17 16 16 16 16 17 19 20 21 20 20 20 19 18 16 15 15 18 20 21 21 21 18 17 16 16 14 14 13 14 15 15 14 16 16 17 17 14 15 17 18 18 18 17
16 16 16 16 18 19 19 20 20 20 20 18 16 15 14 13 12 13 13 16 18 17 17 15 14 14 15 15 16 14 17 14 14 16 17 19 18 18 18 20 19 19 20 19

GFSNGP_850_spd_147.txt.gz
Wind_Speed
11 2 3 5 12 11 6 5 6 5 7 9 10 9 14 11 6 1 7 10 14 17 21 22 23 22 23 23 24 26 26 29 31 32 32 32 33 34 34 32 30 26 27 27
4 8 7 5 10 9 4 5 5 5 2 6 11 17 14 11 6 1 5 9 10 13 18 20 22 22 22 22 23 24 25 26 29 30 30 30 30 31 33 33 31 30 31 33
4 9 2 3 7 8 4 3 7 6 6 8 8 13 16 14 7 1 4 8 9 13 16 17 19 19 21 21 21 22 23 24 26 30 29 28 27 26 27 30 32 34 35 36
2 6 7 4 2 2 5 2 3 6 10 12 16 13 13 8 4 1 5 7 6 11 13 15 15 15 17 18 20 21 22 23 24 29 29 28 25 26 26 28 30 33 33 36
3 5 2 1 4 7 7 6 5 9 9 19 23 17 7 6 2 2 4 5 7 9 10 12 13 14 16 17 19 20 22 23 22 23 29 29 28 26 26 27 29 33 35 36
2 4 5 2 4 9 4 3 16 15 17 22 19 5 4 11 4 2 4 4 5 7 9 9 12 13 14 16 19 21 21 20 20 19 23 27 28 26 27 29 30 31 33 36
3 2 4 2 10 9 4 5 19 25 25 24 6 5 15 14 7 3 4 4 5 6 8 9 10 12 14 15 18 18 16 17 17 18 21 27 27 27 27 28 30 32 33 33
2 3 5 13 6 5 5 13 24 27 26 21 15 18 20 13 8 5 4 4 5 5 7 8 10 12 14 15 16 15 15 15 17 18 20 24 29 28 28 29 32 32 33 32
3 3 2 3 2 7 17 28 24 24 20 17 23 21 17 13 8 5 4 6 6 5 6 7 9 12 14 15 16 15 15 16 17 18 20 23 27 29 30 31 32 32 33 34
3 0 2 7 13 18 19 24 21 17 20 19 23 19 16 12 8 5 4 6 6 5 5 7 9 11 13 13 15 15 17 18 18 20 21 22 24 27 28 31 31 33 33 34
3 2 8 11 19 24 20 20 20 21 20 19 19 19 14 12 9 6 4 4 5 5 6 7 8 9 11 13 14 16 17 19 19 19 21 22 23 24 26 26 26 27 28 29
5 19 6 17 24 23 22 23 23 23 22 18 14 16 14 11 9 6 4 4 4 5 5 6 6 8 10 12 13 14 16 18 19 19 20 20 20 21 23 24 25 26 26 28
7 27 8 28 26 22 21 24 22 18 16 20 17 12 12 11 10 7 6 5 4 4 4 3 4 6 8 9 12 13 14 15 16 18 19 20 20 20 20 22 23 23 25 27
19 26 21 30 24 26 24 22 18 15 15 13 15 14 11 11 11 9 7 6 5 4 3 3 3 4 6 7 9 11 12 12 13 14 15 17 19 20 20 21 23 24 24 25
30 15 24 29 28 26 23 21 20 19 18 17 14 13 13 12 11 10 9 7 5 5 4 4 2 2 3 5 7 8 10 11 11 11 11 11 11 13 15 17 19 19 19 20
17 10 23 29 30 27 24 23 21 20 18 17 17 15 13 11 11 10 10 8 7 6 5 3 2 1 3 4 7 8 8 9 10 10 10 10 11 11 12 12 13 15 17 20
24 24 29 31 31 29 27 23 19 18 18 17 16 15 15 14 13 12 11 9 8 8 7 5 2 3 5 6 7 8 9 9 10 11 11 12 12 12 13 13 15 16 16 17
18 20 25 28 31 28 25 22 18 17 17 16 16 16 16 16 13 12 11 11 11 10 9 7 5 4 6 8 8 9 10 11 11 12 13 13 14 15 15 15 15 16 17 17
12 16 24 22 22 22 21 20 19 15 13 15 17 16 14 12 13 13 12 12 12 11 10 9 7 7 8 10 10 11 12 13 13 13 14 14 15 16 17 17 18 18 18 18
13 13 18 17 17 18 19 18 16 14 13 14 15 16 17 16 16 14 13 12 11 11 10 10 10 10 11 12 12 13 14 14 14 14 14 15 16 16 17 17 18 18 18 18
13 15 15 16 17 17 17 14 14 14 15 16 17 16 15 15 16 15 15 13 10 11 11 10 11 12 12 13 14 14 15 16 16 15 15 16 17 17 17 18 18 18 18 18
14 13 13 13 14 14 15 13 11 11 15 17 18 18 18 19 18 17 15 14 15 14 12 12 13 14 13 13 14 16 17 16 16 16 16 16 16 16 17 17 18 19 19 19
13 12 12 14 13 12 12 13 14 14 14 16 18 19 20 18 16 17 16 13 15 14 12 12 14 15 16 16 14 15 17 16 15 15 15 15 14 16 17 17 17 19 19 20
13 12 12 14 16 17 17 16 16 17 16 15 16 16 17 18 19 17 15 16 15 14 13 13 14 14 14 15 14 13 14 14 14 15 13 13 15 15 16 16 16 17 18 19
11 10 12 14 16 16 16 16 18 19 20 20 19 19 19 19 18 15 17 16 16 15 13 12 13 14 15 15 14 13 12 11 11 13 14 13 13 14 14 15 16 16 17 18
11 11 12 13 14 14 16 18 19 19 20 21 20 19 19 18 18 18 19 17 15 14 12 12 13 13 12 11 9 9 9 10 11 11 11 12 13 13 14 16 16 17 19 19
13 13 14 15 16 16 16 17 18 18 18 17 16 15 16 17 18 18 18 16 13 10 8 8 9 10 9 9 9 9 10 11 12 13 13 14 14 15 16 17 18 18 19 19